When you browse on this site, cookies collect data to enhance your experience and personalize the content and advertising you see.
Visit our Privacy Policy to learn more. By continuing to use the site, you agree to this use of cookies and data.
  • In Österreich
  • Länderverzeichnis
  • Für 7 Tage
  • Wassertemperatur
  • Wetterkarte
  • News
  • Widgets
  • user-avatar
    Anmelden

    Stündliche Wetter Tlanalapan

    Heute, 25 August, Sonntag

    Zeit Temperatur Niederschläge Wind Luftdruck Luftfeuchtigkeit
    00:00 +14°C° 0 mm 1 m/S 568 mmHg 84%
    01:00 +14°C° 0 mm 1 m/S 567 mmHg 84%
    02:00 +14°C° 0 mm 1 m/S 567 mmHg 85%
    03:00 +13°C° 0 mm 1 m/S 567 mmHg 85%
    04:00 +13°C° 0 mm 1 m/S 566 mmHg 85%
    05:00 +13°C° 0 mm 1 m/S 566 mmHg 85%
    06:00 +15°C° 0 mm 1 m/S 567 mmHg 79%
    07:00 +16°C° 0 mm 1 m/S 568 mmHg 73%
    08:00 +19°C° 0 mm 1 m/S 570 mmHg 67%
    09:00 +21°C° 0 mm 1 m/S 570 mmHg 61%
    10:00 +22°C° 0 mm 1 m/S 571 mmHg 55%
    11:00 +24°C° 0 mm 1 m/S 571 mmHg 50%
    12:00 +24°C° 0.6 mm 1 m/S 570 mmHg 52%
    13:00 +23°C° 0.6 mm 2 m/S 570 mmHg 55%
    14:00 +23°C° 0.6 mm 2 m/S 569 mmHg 58%
    15:00 +21°C° 1.5 mm 2 m/S 569 mmHg 63%
    16:00 +21°C° 1.5 mm 2 m/S 568 mmHg 69%
    17:00 +21°C° 1.5 mm 1 m/S 568 mmHg 74%
    18:00 +19°C° 1 mm 1 m/S 568 mmHg 77%
    19:00 +17°C° 1 mm 2 m/S 568 mmHg 79%
    20:00 +16°C° 1 mm 2 m/S 567 mmHg 82%
    21:00 +15°C° 0.5 mm 1 m/S 567 mmHg 84%
    22:00 +15°C° 0.5 mm 1 m/S 567 mmHg 85%
    23:00 +13°C° 0.5 mm 0 m/S 566 mmHg 86%

    Morgen, 26 August, Montag

    Zeit Temperatur Niederschläge Wind Luftdruck Luftfeuchtigkeit
    00:00 +14°C° 0.1 mm 1 m/S 566 mmHg 87%
    01:00 +13°C° 0.1 mm 1 m/S 565 mmHg 87%
    02:00 +13°C° 0.1 mm 1 m/S 565 mmHg 87%
    03:00 +13°C° 0 mm 1 m/S 565 mmHg 87%
    04:00 +13°C° 0 mm 1 m/S 565 mmHg 87%
    05:00 +13°C° 0 mm 1 m/S 565 mmHg 87%
    06:00 +14°C° 0 mm 1 m/S 566 mmHg 82%
    07:00 +16°C° 0 mm 1 m/S 567 mmHg 76%
    08:00 +17°C° 0 mm 0 m/S 568 mmHg 71%
    09:00 +20°C° 0.1 mm 1 m/S 569 mmHg 66%
    10:00 +22°C° 0.1 mm 1 m/S 569 mmHg 61%
    11:00 +23°C° 0.1 mm 1 m/S 569 mmHg 56%
    12:00 +24°C° 0.5 mm 1 m/S 569 mmHg 55%
    13:00 +24°C° 0.5 mm 2 m/S 569 mmHg 54%
    14:00 +24°C° 0.5 mm 2 m/S 569 mmHg 53%
    15:00 +22°C° 0.8 mm 3 m/S 568 mmHg 60%
    16:00 +21°C° 0.8 mm 3 m/S 567 mmHg 67%
    17:00 +19°C° 0.8 mm 3 m/S 566 mmHg 74%
    18:00 +18°C° 0.6 mm 2 m/S 566 mmHg 78%
    19:00 +16°C° 0.6 mm 2 m/S 566 mmHg 81%
    20:00 +15°C° 0.6 mm 1 m/S 566 mmHg 85%
    21:00 +14°C° 0 mm 1 m/S 566 mmHg 85%
    22:00 +14°C° 0 mm 1 m/S 566 mmHg 85%
    23:00 +13°C° 0 mm 0 m/S 566 mmHg 85%

    übermorgen, 27 August, Dienstag

    Zeit Temperatur Niederschläge Wind Luftdruck Luftfeuchtigkeit
    00:00 +12°C° 0 mm 0 m/S 565 mmHg 85%
    01:00 +12°C° 0 mm 0 m/S 565 mmHg 85%
    02:00 +12°C° 0 mm 0 m/S 565 mmHg 84%
    03:00 +12°C° 0 mm 0 m/S 565 mmHg 85%
    04:00 +11°C° 0 mm 0 m/S 565 mmHg 86%
    05:00 +11°C° 0 mm 0 m/S 565 mmHg 86%
    06:00 +13°C° 0 mm 0 m/S 566 mmHg 81%
    07:00 +15°C° 0 mm 0 m/S 567 mmHg 76%
    08:00 +17°C° 0 mm 0 m/S 568 mmHg 70%
    09:00 +18°C° 0 mm 0 m/S 569 mmHg 63%
    10:00 +22°C° 0 mm 1 m/S 569 mmHg 56%
    11:00 +23°C° 0 mm 1 m/S 570 mmHg 49%
    12:00 +23°C° 0.9 mm 2 m/S 569 mmHg 53%
    13:00 +23°C° 0.9 mm 2 m/S 569 mmHg 56%
    14:00 +21°C° 0.9 mm 3 m/S 568 mmHg 59%
    15:00 +20°C° 1.3 mm 3 m/S 568 mmHg 65%
    16:00 +19°C° 1.3 mm 3 m/S 567 mmHg 71%
    17:00 +18°C° 1.3 mm 3 m/S 567 mmHg 77%
    18:00 +17°C° 0.8 mm 3 m/S 567 mmHg 79%
    19:00 +16°C° 0.8 mm 2 m/S 567 mmHg 81%
    20:00 +15°C° 0.8 mm 2 m/S 568 mmHg 84%
    21:00 +15°C° 0.4 mm 2 m/S 568 mmHg 84%
    22:00 +15°C° 0.4 mm 1 m/S 568 mmHg 85%
    23:00 +14°C° 0.4 mm 1 m/S 568 mmHg 85%

    28 August, Mittwoch

    Zeit Temperatur Niederschläge Wind Luftdruck Luftfeuchtigkeit
    00:00 +14°C° 0.1 mm 1 m/S 567 mmHg 86%
    01:00 +13°C° 0.1 mm 1 m/S 567 mmHg 87%
    02:00 +13°C° 0.1 mm 1 m/S 567 mmHg 88%
    03:00 +12°C° 0 mm 1 m/S 567 mmHg 87%
    04:00 +12°C° 0 mm 1 m/S 567 mmHg 87%
    05:00 +12°C° 0 mm 1 m/S 567 mmHg 87%
    06:00 +14°C° 0 mm 1 m/S 568 mmHg 80%
    07:00 +16°C° 0 mm 1 m/S 569 mmHg 73%
    08:00 +17°C° 0 mm 0 m/S 571 mmHg 65%
    09:00 +21°C° 0 mm 1 m/S 571 mmHg 57%
    10:00 +21°C° 0 mm 2 m/S 571 mmHg 48%
    11:00 +24°C° 0 mm 3 m/S 572 mmHg 39%
    12:00 +23°C° 0 mm 4 m/S 571 mmHg 40%
    13:00 +23°C° 0 mm 4 m/S 571 mmHg 40%
    14:00 +23°C° 0 mm 5 m/S 570 mmHg 41%
    15:00 +21°C° 0 mm 5 m/S 570 mmHg 50%
    16:00 +20°C° 0 mm 5 m/S 569 mmHg 59%
    17:00 +17°C° 0 mm 5 m/S 568 mmHg 68%
    18:00 +15°C° 0 mm 4 m/S 568 mmHg 76%
    19:00 +13°C° 0 mm 3 m/S 567 mmHg 83%
    20:00 +13°C° 0 mm 2 m/S 567 mmHg 91%
    21:00 +12°C° 0 mm 2 m/S 567 mmHg 91%
    22:00 +12°C° 0 mm 2 m/S 567 mmHg 92%
    23:00 +12°C° 0 mm 2 m/S 568 mmHg 92%

    29 August, Donnerstag

    Zeit Temperatur Niederschläge Wind Luftdruck Luftfeuchtigkeit
    00:00 +12°C° 0 mm 1 m/S 567 mmHg 92%
    01:00 +11°C° 0 mm 1 m/S 567 mmHg 93%
    02:00 +11°C° 0 mm 1 m/S 566 mmHg 93%
    03:00 +10°C° 0 mm 1 m/S 566 mmHg 92%
    04:00 +10°C° 0 mm 1 m/S 566 mmHg 92%
    05:00 +9°C° 0 mm 1 m/S 566 mmHg 92%
    06:00 +12°C° 0 mm 1 m/S 567 mmHg 80%
    07:00 +14°C° 0 mm 1 m/S 569 mmHg 69%
    08:00 +16°C° 0 mm 1 m/S 570 mmHg 58%
    09:00 +19°C° 0 mm 1 m/S 571 mmHg 50%
    10:00 +20°C° 0 mm 2 m/S 571 mmHg 42%
    11:00 +23°C° 0 mm 2 m/S 572 mmHg 34%
    12:00 +23°C° 0 mm 2 m/S 571 mmHg 36%
    13:00 +24°C° 0 mm 3 m/S 571 mmHg 38%
    14:00 +23°C° 0 mm 4 m/S 571 mmHg 40%
    15:00 +21°C° 0.3 mm 4 m/S 570 mmHg 52%
    16:00 +20°C° 0.3 mm 4 m/S 569 mmHg 65%
    17:00 +18°C° 0.3 mm 4 m/S 568 mmHg 77%
    18:00 +15°C° 0.2 mm 4 m/S 568 mmHg 81%
    19:00 +14°C° 0.2 mm 3 m/S 568 mmHg 86%
    20:00 +13°C° 0.2 mm 3 m/S 568 mmHg 90%
    21:00 +13°C° 0 mm 2 m/S 568 mmHg 91%
    22:00 +12°C° 0 mm 2 m/S 568 mmHg 91%
    23:00 +12°C° 0 mm 1 m/S 567 mmHg 92%

    30 August, Freitag

    Zeit Temperatur Niederschläge Wind Luftdruck Luftfeuchtigkeit
    00:00 +11°C° 0 mm 1 m/S 567 mmHg 91%
    01:00 +11°C° 0 mm 1 m/S 566 mmHg 90%
    02:00 +9°C° 0 mm 0 m/S 566 mmHg 89%
    03:00 +10°C° 0 mm 1 m/S 566 mmHg 88%
    04:00 +10°C° 0 mm 1 m/S 566 mmHg 86%
    05:00 +10°C° 0 mm 1 m/S 566 mmHg 84%
    06:00 +11°C° 0 mm 0 m/S 567 mmHg 77%
    07:00 +13°C° 0 mm 0 m/S 568 mmHg 70%
    08:00 +16°C° 0 mm 0 m/S 570 mmHg 63%
    09:00 +17°C° 0 mm 0 m/S 570 mmHg 55%
    10:00 +21°C° 0 mm 1 m/S 571 mmHg 47%
    11:00 +22°C° 0 mm 1 m/S 571 mmHg 39%
    12:00 +23°C° 0 mm 2 m/S 571 mmHg 38%
    13:00 +22°C° 0 mm 3 m/S 570 mmHg 38%
    14:00 +23°C° 0 mm 4 m/S 570 mmHg 37%
    15:00 +21°C° 0.2 mm 4 m/S 569 mmHg 48%
    16:00 +20°C° 0.2 mm 4 m/S 568 mmHg 60%
    17:00 +18°C° 0.2 mm 4 m/S 568 mmHg 71%
    18:00 +16°C° 0.1 mm 3 m/S 567 mmHg 77%
    19:00 +14°C° 0.1 mm 2 m/S 567 mmHg 83%
    20:00 +13°C° 0.1 mm 2 m/S 567 mmHg 89%
    21:00 +12°C° 0 mm 1 m/S 567 mmHg 87%
    22:00 +12°C° 0 mm 1 m/S 566 mmHg 85%
    23:00 +12°C° 0 mm 1 m/S 566 mmHg 82%
    Mehr zeigen